Theta_e
319 324 335 342 336 334 338 339 337 334 335 335 337 335 337 340 338 336 339 335 331 324 324 323 321 317 315 315 314 314 315 316 318 317 316 317 319 321 323 326 327 326 325 326 328 330 332 332 331
323 334 335 337 334 334 336 333 332 331 335 338 339 341 344 345 342 341 338 335 328 325 324 323 320 315 314 314 314 314 315 317 317 316 318 319 321 322 324 325 326 326 324 323 321 320 321 324 326
321 332 332 332 334 333 336 334 332 333 335 333 336 339 343 344 343 339 339 335 327 324 324 322 315 313 314 314 314 314 315 316 317 317 319 321 322 323 323 321 320 323 327 330 331 332 331 328 322
327 328 329 332 335 334 336 334 336 332 334 335 336 335 343 344 342 341 338 329 325 324 323 316 313 313 313 313 314 314 314 315 316 317 319 320 320 321 327 333 336 336 336 335 335 337 337 337 336
324 326 330 332 332 333 333 335 336 330 331 334 336 338 343 343 342 336 327 325 323 321 317 314 313 313 313 314 314 315 315 315 316 318 320 325 331 335 337 338 339 339 338 338 338 338 340 343 341
326 320 330 331 335 337 335 337 331 331 332 336 338 337 341 343 337 330 326 323 319 315 314 313 314 314 315 316 316 317 317 320 325 331 334 336 338 339 340 339 338 337 334 337 338 338 338 338 336
321 313 319 335 336 335 333 333 331 331 332 335 337 335 342 341 335 328 321 317 316 316 314 314 315 315 316 317 320 325 328 332 334 335 337 340 342 342 340 337 334 332 332 334 334 332 334 334 332
324 314 334 334 334 336 335 334 333 333 331 335 337 334 340 340 338 334 329 318 317 316 316 316 316 317 320 324 330 333 334 335 340 342 340 343 346 343 339 334 333 332 331 331 330 330 329 329 331
323 315 317 326 335 333 335 330 332 330 335 333 331 336 338 340 340 340 339 320 317 317 317 317 319 322 325 329 333 334 340 346 345 344 345 345 346 345 341 337 332 331 330 329 328 326 325 330 330
317 312 315 318 332 332 332 335 330 332 334 332 334 337 340 339 340 341 338 320 318 318 318 319 320 324 328 331 333 336 343 345 345 344 342 343 344 346 347 343 335 334 331 328 326 322 327 330 330
315 314 315 321 323 331 332 334 329 331 330 331 334 337 338 339 341 341 331 320 318 318 319 319 321 324 327 329 332 340 346 344 344 341 345 345 345 346 345 341 333 333 333 334 326 320 328 331 331
317 317 319 321 322 330 332 332 328 331 330 330 331 336 337 338 340 339 333 330 319 318 319 320 323 325 327 331 335 335 344 341 342 343 344 345 345 344 345 340 340 336 334 334 323 319 328 331 330
316 317 320 322 323 328 331 328 328 329 330 330 335 336 337 338 338 337 334 331 325 320 326 322 329 326 328 337 339 339 343 340 344 345 343 345 344 344 344 344 343 338 334 328 319 319 324 329 330
321 320 321 323 322 335 333 330 329 328 330 332 334 335 336 337 338 336 333 332 332 332 332 332 334 335 338 340 342 344 344 344 344 346 344 345 345 344 345 344 342 336 326 321 319 318 319 328 330
321 321 319 323 331 333 334 328 326 327 331 333 334 334 334 336 336 335 333 332 332 332 333 333 334 334 336 341 343 343 344 347 346 346 345 346 346 345 345 344 342 333 320 320 319 318 317 318 327
319 320 322 321 328 333 334 333 326 329 331 332 333 334 335 335 335 335 333 331 331 332 333 333 333 334 334 336 341 343 344 345 346 346 346 346 345 345 342 342 340 333 320 320 318 317 316 319 323
314 322 323 323 324 327 329 330 326 331 331 331 332 333 334 335 335 334 332 330 331 331 332 333 333 334 334 335 338 341 342 344 345 346 346 345 345 344 340 340 339 324 320 319 318 317 318 317 318
318 318 318 320 321 324 328 329 324 330 331 331 331 332 332 333 334 332 330 331 331 331 332 333 332 332 333 335 338 344 344 343 345 345 347 346 343 343 340 339 332 320 320 319 317 318 319 319 315
317 317 317 317 317 324 325 330 324 328 329 329 330 330 331 331 331 332 331 331 331 331 331 332 333 333 334 337 343 345 344 344 345 345 347 341 342 341 338 334 327 318 319 319 318 319 319 316 316
317 318 317 316 318 328 328 331 329 325 327 328 328 329 330 331 330 331 330 330 330 331 331 332 333 333 334 335 338 341 341 342 344 345 344 343 341 341 338 332 325 319 319 319 318 320 318 316 317
318 318 317 318 319 324 331 327 333 327 327 327 327 328 329 330 330 330 330 330 330 330 331 332 333 333 334 335 337 341 342 343 345 345 344 342 342 341 336 332 323 319 319 319 319 320 318 316 314
317 316 318 319 318 317 329 333 327 330 330 329 327 326 328 329 329 329 330 330 329 330 330 331 332 333 334 333 335 336 338 339 340 342 344 343 341 340 335 331 323 318 320 319 319 320 318 316 314
318 318 317 319 317 316 318 320 320 325 331 329 329 329 329 328 328 329 329 330 329 329 329 330 331 332 333 332 334 335 337 341 342 344 343 344 342 339 336 332 323 319 320 320 319 320 318 316 314
320 319 316 312 312 315 315 316 314 318 323 327 328 331 332 332 331 330 329 329 329 329 329 329 330 331 332 332 334 335 336 340 343 346 344 343 341 337 335 332 322 323 321 322 320 320 319 318 313
317 315 317 318 317 317 315 316 315 319 318 321 321 324 326 325 328 332 328 327 329 329 329 329 330 331 331 332 335 336 339 341 341 345 345 343 341 336 333 331 324 325 323 322 321 320 320 319 316
321 316 317 319 317 317 316 317 318 318 320 323 325 324 325 328 326 326 331 329 328 329 330 330 330 330 331 333 335 336 336 336 343 347 346 344 341 335 332 330 324 325 324 323 323 320 321 319 316
322 319 317 317 315 316 316 317 318 319 321 324 326 328 326 326 330 330 325 328 328 328 330 330 330 330 332 333 335 335 332 333 337 346 347 343 343 334 331 329 324 324 324 323 323 320 320 319 316
321 318 320 314 320 319 317 320 320 321 321 323 322 326 327 329 335 332 329 329 328 329 329 331 331 331 332 334 335 335 333 330 336 346 348 342 343 334 331 328 324 324 322 323 323 320 320 319 315
321 320 316 315 315 318 318 318 317 320 321 323 322 327 328 329 331 334 332 332 331 330 329 332 332 332 333 334 335 336 336 333 336 346 349 347 343 334 330 328 325 323 322 322 323 321 320 318 314
321 321 318 320 321 318 318 320 320 320 318 320 323 324 324 327 328 331 334 333 333 332 331 331 332 333 335 336 337 336 337 335 341 349 349 347 344 335 331 327 325 324 324 324 324 324 320 318 316
Wind_Speed
2 3 0 1 3 5 4 5 3 3 3 2 16 5 8 7 6 4 18 26 22 23 21 17 14 12 12 13 13 14 15 16 16 17 18 19 19 18 17 15 12 9 7 6 6 6 6 7 5
1 2 2 1 4 4 4 4 7 4 6 18 14 10 6 2 4 16 28 25 25 23 20 17 14 13 13 13 14 15 16 17 17 18 19 19 18 17 15 13 11 9 8 7 7 7 7 7 4
2 4 1 4 3 2 4 1 4 2 8 2 6 10 4 4 6 32 23 24 26 21 18 14 13 13 14 14 15 16 17 17 17 18 18 17 16 14 13 11 10 10 10 11 11 11 11 10 8
3 2 2 3 2 4 4 5 5 4 4 4 13 6 7 2 25 17 21 27 22 19 16 13 13 14 15 16 17 17 18 18 18 18 17 16 15 14 13 12 12 11 11 10 10 11 11 11 10
3 0 2 2 3 4 4 5 8 7 2 4 1 5 10 14 14 20 22 22 19 17 14 13 14 16 17 18 19 20 20 20 19 19 18 17 16 14 13 13 12 11 10 9 8 8 9 9 6
2 1 4 2 3 4 4 7 9 6 6 10 13 12 5 12 16 17 18 18 15 14 15 16 18 19 20 20 21 21 21 21 21 20 19 17 16 15 14 13 13 12 10 8 8 8 7 5 3
3 4 3 3 3 4 3 10 13 11 9 4 17 5 10 23 19 19 20 18 17 17 18 20 20 20 20 21 21 22 21 21 20 19 18 18 17 16 15 15 14 13 10 8 8 8 6 2 4
3 4 4 2 1 5 2 1 21 19 3 17 16 7 8 29 25 21 19 19 19 18 18 20 20 21 21 22 22 21 20 20 19 19 18 16 16 16 14 13 12 8 8 7 8 7 6 5 6
2 4 2 4 3 4 9 5 14 9 23 6 4 10 23 30 29 24 21 20 21 20 20 20 21 21 21 21 21 20 21 19 18 16 14 13 12 11 11 9 8 7 7 7 7 8 6 6 9
5 4 8 6 4 4 2 6 17 8 21 3 10 17 34 30 30 26 23 24 24 22 21 21 21 21 21 20 19 20 20 19 16 15 13 11 9 7 6 4 4 5 5 4 6 5 4 5 8
6 6 6 9 21 23 6 8 13 15 8 14 33 34 36 34 32 27 23 20 21 22 22 22 21 21 20 20 19 20 19 16 13 14 11 8 5 4 8 4 3 1 3 7 6 2 1 2 6
3 12 12 19 29 22 7 7 10 27 11 25 35 40 39 38 36 32 25 20 24 23 22 22 22 21 20 20 18 18 18 14 11 11 9 8 5 4 4 4 3 4 6 8 4 0 3 2 3
4 6 11 22 25 23 24 17 8 26 7 29 37 39 40 39 36 32 21 19 20 23 23 24 22 23 22 21 20 19 17 14 12 9 11 7 5 4 4 5 6 8 9 6 1 2 4 2 1
5 7 12 17 17 16 16 4 12 19 20 35 41 38 39 40 39 34 29 24 26 24 24 25 24 22 21 21 21 18 16 13 14 11 11 8 7 8 11 11 9 10 7 4 2 1 1 3 3
8 7 7 4 4 3 13 4 15 17 29 38 41 39 39 40 39 37 31 28 28 28 25 27 25 25 23 22 20 18 18 16 18 15 11 10 10 12 13 12 11 9 6 3 1 2 2 3 4
5 3 3 5 6 4 14 13 8 27 39 32 38 42 44 42 42 39 34 32 32 32 31 29 27 27 26 25 23 20 21 21 20 18 13 15 14 13 16 15 13 9 6 4 1 1 2 3 6
6 2 2 7 6 3 4 7 5 32 36 34 35 40 44 46 44 42 40 35 35 34 35 34 31 30 27 27 26 23 22 21 19 16 15 17 17 16 15 14 12 9 8 5 4 3 3 3 6
3 4 4 5 3 2 8 11 8 33 34 37 36 36 40 45 52 47 43 41 40 38 37 38 35 31 29 28 30 29 26 23 22 20 19 20 17 16 14 13 11 10 8 6 5 3 2 2 1
2 3 5 6 8 3 4 8 13 30 26 25 29 32 38 46 52 48 49 47 45 44 43 43 43 37 35 35 34 32 31 28 27 25 24 20 18 16 13 13 12 12 10 8 7 3 3 4 4
3 4 10 9 5 4 6 6 5 12 28 32 35 34 40 48 41 49 50 50 51 53 51 48 46 43 39 39 39 39 34 31 29 28 26 23 20 17 14 12 13 13 12 9 7 3 3 6 8
4 4 7 9 6 3 2 5 3 7 19 25 25 37 41 48 51 51 53 53 55 55 57 53 51 47 44 43 41 39 36 34 34 33 31 26 21 15 14 15 14 15 14 12 9 6 5 5 9
5 8 11 6 2 3 3 4 5 5 12 15 33 33 44 49 45 49 54 54 55 58 57 56 54 51 49 45 45 43 39 42 42 38 31 27 23 18 17 16 16 17 15 13 11 9 6 4 2
10 3 7 4 3 4 3 3 7 3 5 10 25 39 46 54 54 55 56 59 59 55 57 61 59 55 53 50 46 44 41 44 41 38 31 29 25 20 18 17 19 19 18 15 11 9 7 5 3
5 3 5 5 4 1 6 7 6 5 8 5 7 22 39 48 51 54 59 63 53 53 57 61 63 60 57 52 46 46 42 47 43 39 34 30 27 23 20 20 21 20 18 16 13 10 7 4 2
4 6 3 5 4 6 2 3 8 7 8 9 12 30 29 30 35 49 53 53 59 56 62 62 66 63 61 54 49 47 45 47 42 40 36 32 19 26 25 24 24 23 20 18 15 12 7 4 1
2 7 5 7 5 6 2 4 6 9 17 14 14 17 24 28 28 35 48 58 61 69 67 66 68 66 62 57 52 46 45 47 42 40 39 34 26 25 26 25 25 23 23 21 18 14 9 6 3
3 3 4 2 2 3 4 7 9 7 8 11 13 22 23 12 17 23 34 43 58 64 68 69 66 66 63 61 53 49 40 44 43 39 39 30 27 24 26 26 26 26 26 25 20 15 11 8 5
5 5 0 2 3 5 5 3 5 8 9 8 10 12 12 16 11 7 5 29 51 57 63 62 62 63 64 62 56 57 37 37 40 37 37 32 27 27 28 28 28 28 29 26 22 17 15 10 8
1 3 4 5 5 5 2 6 7 8 8 8 9 7 6 9 12 13 16 26 37 50 56 59 59 60 59 58 59 60 44 33 38 39 40 36 29 29 31 31 30 30 30 28 23 19 17 14 11
3 5 5 5 5 3 4 6 3 5 8 13 19 29 33 24 14 14 21 25 35 44 53 59 58 58 57 55 58 56 46 35 38 41 39 37 31 31 32 33 31 30 31 27 24 22 21 18 14
Wind_Direction
59 83 42 281 52 61 346 325 281 204 358 128 160 193 172 130 155 201 145 165 174 174 170 169 177 184 177 169 161 154 148 144 142 139 135 132 130 130 131 131 131 130 125 119 117 122 127 130 138
54 128 357 332 77 48 309 282 5 329 131 94 89 100 46 27 126 145 154 165 174 174 170 172 177 182 174 163 154 148 143 141 139 137 133 130 127 126 125 122 116 108 99 91 87 88 94 107 118
201 178 272 101 112 158 180 289 70 73 147 313 117 69 83 144 152 150 160 164 173 173 168 174 177 174 164 155 148 143 140 138 136 134 131 127 121 116 111 103 94 85 81 80 78 77 80 85 91
139 208 77 75 344 256 206 216 184 158 7 45 108 65 62 304 139 158 162 158 169 168 165 173 168 162 153 146 141 136 133 131 130 128 124 118 111 103 95 88 82 78 77 77 78 77 75 76 81
186 38 51 95 245 254 243 255 189 133 92 89 327 88 105 133 145 154 156 164 170 164 162 163 155 148 142 137 133 130 127 126 125 122 117 110 104 98 92 86 81 79 78 79 78 74 71 68 71
184 132 54 270 239 255 249 228 160 116 125 106 106 100 130 184 141 152 160 164 166 156 152 149 145 143 140 136 132 129 128 125 121 117 114 110 105 99 93 86 85 84 81 86 84 75 77 74 57
130 85 206 266 282 312 258 157 132 127 130 148 138 84 142 163 143 142 156 156 154 155 153 151 147 144 141 138 134 131 129 126 121 118 117 108 101 95 93 88 89 87 83 83 78 68 65 32 14
336 87 350 230 57 287 133 39 145 134 141 147 138 145 177 168 159 157 157 157 154 157 156 153 149 147 145 140 138 136 132 127 124 120 118 114 104 99 94 90 92 90 69 62 58 37 10 348 338
200 53 273 268 184 224 166 105 159 134 147 177 176 174 165 166 166 163 166 168 163 162 161 157 153 150 147 145 143 141 136 131 129 130 128 127 122 122 105 97 98 79 67 63 34 17 21 19 15
140 127 220 249 248 253 125 117 160 139 164 202 152 151 160 171 170 171 174 174 169 167 165 162 160 157 154 151 151 149 148 143 140 140 142 145 141 142 158 143 129 79 56 34 16 20 30 33 38
183 186 232 265 246 246 279 150 177 141 213 201 160 160 171 174 176 178 178 171 173 168 169 168 165 163 161 160 160 159 156 149 148 152 158 169 161 154 162 174 149 67 6 349 342 17 128 62 50
171 233 200 257 253 223 208 183 174 178 215 189 178 173 172 177 180 182 180 172 177 176 172 170 168 168 167 165 164 164 167 164 151 159 171 169 172 173 216 195 259 283 306 320 314 72 129 108 50
172 228 249 263 268 227 212 188 185 199 252 167 169 175 178 181 182 186 183 179 176 178 174 173 171 170 171 166 162 164 168 172 176 168 186 195 209 233 248 265 281 279 287 305 300 106 180 200 112
280 240 269 288 272 173 168 140 182 204 193 165 172 182 187 189 187 186 189 188 187 182 182 180 178 174 173 173 176 173 176 179 192 198 204 218 227 270 279 276 278 271 260 243 222 234 143 196 133
286 319 339 292 138 110 127 111 224 200 182 174 179 185 193 197 195 195 195 198 193 193 191 192 188 188 186 184 187 189 190 194 205 209 221 221 237 262 274 274 272 264 231 196 192 293 330 204 196
7 42 26 272 123 213 153 235 228 194 175 181 186 190 194 202 203 203 202 205 203 200 201 200 196 199 200 197 198 202 204 203 205 216 230 233 249 269 283 277 273 262 225 199 159 166 157 171 204
1 255 292 327 191 103 135 253 207 179 175 184 191 194 199 202 208 209 211 203 207 208 205 206 207 208 208 205 206 209 211 214 214 224 238 236 243 263 280 271 264 239 222 210 193 165 159 186 220
246 347 318 276 296 120 198 237 185 183 185 189 194 197 204 207 208 209 211 214 213 214 213 213 212 216 215 212 208 204 213 223 228 233 235 238 251 258 259 256 251 227 222 217 204 188 96 29 109
257 219 265 256 258 249 254 222 199 197 195 191 194 203 209 214 212 210 216 219 220 218 217 217 216 217 215 211 205 206 214 220 228 231 231 240 247 259 251 242 237 216 207 210 207 215 127 136 139
238 308 295 292 330 162 303 287 227 186 206 202 196 202 214 221 219 217 219 221 223 223 220 217 219 219 217 218 217 216 220 225 228 231 236 243 251 250 239 232 228 217 212 203 207 234 174 151 169
251 211 257 233 336 317 26 320 206 193 207 224 228 217 217 219 217 215 218 220 222 225 221 218 219 219 217 218 219 220 223 224 227 229 233 239 243 245 231 228 223 216 208 205 201 213 238 154 162
277 212 232 244 141 219 79 271 300 201 229 221 225 222 226 226 226 225 217 221 224 226 223 220 220 220 215 218 222 222 228 226 228 230 231 240 240 238 228 228 226 213 209 204 199 203 203 237 168
238 157 208 209 160 81 334 92 266 330 265 231 227 226 228 233 231 229 225 222 224 226 225 222 221 220 217 221 225 228 225 233 234 227 232 237 237 221 224 231 224 211 209 210 205 196 185 206 216
254 134 43 37 101 69 238 166 270 240 225 284 271 221 235 238 239 239 234 232 222 226 224 224 221 220 219 223 227 231 238 229 226 222 233 234 227 215 221 228 219 213 212 212 211 205 186 193 186
87 63 332 337 349 230 286 68 243 258 244 228 269 292 282 259 252 241 230 224 222 221 225 223 219 220 221 222 225 231 241 235 233 232 234 233 255 214 220 222 217 214 215 215 212 208 203 217 240
191 152 154 231 229 249 3 247 245 227 267 279 299 324 301 274 264 246 237 225 221 222 223 221 220 220 220 220 225 229 245 238 232 231 239 248 251 212 218 220 217 216 219 219 216 213 212 224 238
276 207 193 162 55 68 226 293 300 279 290 313 332 359 345 300 274 264 239 227 217 217 217 221 221 221 220 221 223 229 248 234 234 230 239 253 234 218 217 218 215 215 219 220 219 216 215 222 231
165 173 354 16 262 267 283 264 233 292 291 301 319 345 340 320 294 266 249 224 218 220 219 219 221 225 224 221 222 230 251 234 237 231 237 248 238 220 219 216 215 216 215 216 215 214 217 221 226
284 256 63 122 149 191 223 264 223 246 260 253 278 322 343 331 297 262 224 225 226 219 217 219 223 227 227 224 224 232 247 248 238 230 235 244 230 221 217 218 215 214 213 214 216 218 219 218 225
233 233 160 138 251 216 165 259 262 297 308 324 335 340 336 309 284 268 240 226 219 218 218 222 225 228 227 226 224 232 244 249 233 228 233 240 230 223 220 220 217 215 215 215 217 218 217 216 225